Location: Coupvray
(48.8929°N, 2.7967°E)
Time: 12:49:23
(UTC+00:00)

Altair 2 - Pass Details

Date: 25 January 2021
Orbit: 837 x 949 km, 90.2° (Epoch: 28 February)

Event Time Altitude Azimuth Distance (km) Brightness Sun altitude
Rises 17:43:31 0° 170° (S) 3,381 10.9 -11.2°
Reaches altitude 10° 17:45:54 10° 169° (S) 2,447 10.2 -11.6°
Maximum altitude 17:51:21 75° 85° (E) 871 7.6 -12.4°
Drops below altitude 10° 17:56:52 10° 1° (N) 2,478 10.0 -13.3°
Sets 17:59:17 0° 0° (N) 3,427 10.7 -13.7°
